This is the latest recevied weather packets stored in our database for station/object NA9VY-8. If no packets are shown the sender has not sent any weather packets the latest 10 day(s).
| Time | Temp. | Humidity | Pressure | Rain* | Wind** | Luminosity | Snow |
|---|---|---|---|---|---|---|---|
| 1777901349 | 15.56° C | 81% | 1012.7 hPa | 0 mm | - | 152 W/m² | - |
| 1777901047 | 15.56° C | 81% | 1012.6 hPa | 0 mm | - | 124 W/m² | - |
| 1777900744 | 15.56° C | 81% | 1012.6 hPa | 0 mm | - | 99 W/m² | - |
| 1777900441 | 15° C | 81% | 1012.5 hPa | 0 mm | - | 82 W/m² | - |
| 1777900138 | 15.56° C | 81% | 1012.7 hPa | 0 mm | - | 60 W/m² | - |
| 1777899835 | 15.56° C | 80% | 1012.6 hPa | 0 mm | - | 69 W/m² | - |
| 1777899532 | 15.56° C | 80% | 1012.5 hPa | 0 mm | - | 70 W/m² | - |
| 1777899229 | 15.56° C | 80% | 1012.3 hPa | 0 mm | - | 119 W/m² | - |
| 1777898926 | 15.56° C | 80% | 1012.4 hPa | 0 mm | - | 147 W/m² | - |
| 1777898624 | 15° C | 84% | 1012.5 hPa | 0 mm | - | 136 W/m² | - |
| 1777898321 | 15° C | 81% | 1012.5 hPa | 0 mm | - | 89 W/m² | - |
| 1777898018 | 15° C | 82% | 1012 hPa | 0 mm | - | 81 W/m² | - |
| 1777897714 | 15° C | 81% | 1012.1 hPa | 0 mm | - | 65 W/m² | - |
| 1777897411 | 14.44° C | 81% | 1011.8 hPa | 0 mm | - | 51 W/m² | - |
| 1777897107 | 14.44° C | 82% | 1011.9 hPa | 0 mm | - | 69 W/m² | - |
| 1777896803 | 13.89° C | 85% | 1012.1 hPa | 0 mm | - | 72 W/m² | - |
| 1777896501 | 13.33° C | 85% | 1012 hPa | 0 mm | - | 65 W/m² | - |
| 1777896197 | 13.33° C | 86% | 1012.2 hPa | 0 mm | - | 44 W/m² | - |
| 1777895896 | 12.78° C | 87% | 1012.3 hPa | 0 mm | - | 29 W/m² | - |
| 1777895593 | 12.78° C | 87% | 1012.6 hPa | 0 mm | - | 18 W/m² | - |
| 1777895290 | 12.78° C | 87% | 1013 hPa | 0 mm | - | 5 W/m² | - |
| 1777894988 | 12.78° C | 88% | 1012.9 hPa | 0 mm | - | 4 W/m² | - |
| 1777894685 | 12.78° C | 87% | 1012.8 hPa | 0 mm | - | 2 W/m² | - |
| 1777894381 | 13.33° C | 85% | 1012.9 hPa | 0.51 mm | - | 0 W/m² | - |
| 1777894079 | 13.33° C | 82% | 1012.9 hPa | 0.51 mm | - | 1 W/m² | - |
* Rain latest hour (hover to see other rain measurements)
** Current wind speed in m/s (hover to see current wind gust speed)